Location: Michelbach Markt
(48.1000°N, 15.7500°E)
Time: 02:49:41
(UTC+01:00)

ISS - Pass Details

Date: 06 December 2021
Orbit: 413 x 422 km, 51.6° (Epoch: 27 January)

Event Time Altitude Azimuth Distance (km) Brightness Sun altitude
Rises 17:49:41 0° 290° (WNW) 2,387 1.0 -16.8°
Reaches altitude 10° 17:51:55 10° 281° (W) 1,516 0.1 -17.2°
Maximum altitude 17:55:01 32° 216° (SW) 745 -2.1 -17.7°
Enters shadow 17:57:43 12° 154° (SSE) 1,374 -1.3 -18.1°
